Concordia, KS

12:17 PM CDT on October 01, 2016 (GMT -0500)
Blosser Municipal

Weather History for KCNK - August, 2013

Change the Weather History Date:

Monday, August 5, 2013

  Actual Average Record
Temperature  
Mean Temperature 77 °F 78 °F  
Max Temperature 83 °F 90 °F 107 °F (1913)
Min Temperature 70 °F 67 °F 55 °F (1994)
Degree Days  
Heating Degree Days 0 0  
Month to date heating degree days 0 0  
Since 1 June heating degree days 22 13  
Since 1 July heating degree days 7 0  
Cooling Degree Days 12 14  
Month to date cooling degree days 49 70  
Year to date cooling degree days 801 860  
Since 1 June cooling degree days 698 771  
Growing Degree Days 26 (Base 50)    
Moisture  
Dew Point 71 °F    
Average Humidity 85    
Maximum Humidity 100    
Minimum Humidity 69    
Precipitation  
Precipitation 0.00 in 0.11 in 2.34 in (2011)
Month to date precipitation 5.37 0.54  
Year to date precipitation 22.36 18.50  
Snow  
Snow 0.00 in 0.00 in 0.00 in ()
Month to date snowfall 0.0 0.0  
Year to date snowfall 20.3 13.7  
Since 1 July snowfall 0.0 0.0  
Snow Depth 0.00 in    
Sea Level Pressure  
Sea Level Pressure 29.92 in    
Wind  
Wind Speed 5 mph (ESE)    
Max Wind Speed 15 mph    
Max Gust Speed 18 mph    
Visibility 8 miles    
Events      
T = Trace of Precipitation, MM = Missing Value Source: NWS Daily Summary

Daily Weather History Graph

Daily Weather History Graph

Search for Another Location

Airport or City:

Trip Planner

Search our weather history database for the weather conditions in past years. The results will help you decide how hot, cold, wet, or windy it might be!

Date:

Astronomy

Aug. 05, 2013 Rise Set
Actual Time 6:33 AM CDT 8:38 PM CDT
Civil Twilight 6:04 AM CDT 9:08 PM CDT
Nautical Twilight 5:28 AM CDT 9:44 PM CDT
Astronomical Twilight 4:48 AM CDT 10:23 PM CDT
Moon 5:30 AM CDT (8/5) 7:39 PM CDT (8/5)
Length of Visible Light 15h 03m
Length of Day
14h 04m
Waning Crescent, 1% of the Moon is Illuminated
Aug 5
Waning Crescent
Aug 6
New
Aug 14
First Quarter
Aug 20
Full
Aug 28
Last Quarter

Hourly Weather History & Observations

Time (CDT) Temp. Heat Index Dew Point Humidity Pressure Visibility Wind Dir Wind Speed Gust Speed Precip Events Conditions
12:10 AM 69.8 °F - 69.8 °F 100% 30.03 in 9.0 mi ESE 4.6 mph - N/A   Scattered Clouds
12:23 AM 71.6 °F - 69.8 °F 94% 30.02 in 8.0 mi ESE 5.8 mph - N/A   Mostly Cloudy
12:55 AM 71.1 °F - 70.0 °F 96% 29.99 in 6.0 mi SE 5.8 mph - N/A   Overcast
1:21 AM 71.6 °F - 69.8 °F 94% 30.02 in 7.0 mi ESE 5.8 mph - N/A   Overcast
1:55 AM 71.1 °F - 70.0 °F 96% 29.97 in 6.0 mi SE 5.8 mph - N/A   Overcast
2:38 AM 69.8 °F - 69.8 °F 100% 30.00 in 5.0 mi SE 4.6 mph - N/A   Partly Cloudy
2:55 AM 70.0 °F - 69.1 °F 97% 29.95 in 4.0 mi SE 5.8 mph - N/A   Scattered Clouds
3:02 AM 69.8 °F - 69.8 °F 100% 29.99 in 4.0 mi SE 6.9 mph - N/A   Mostly Cloudy
3:55 AM 71.1 °F - 69.1 °F 93% 29.94 in 5.0 mi SE 6.9 mph - N/A   Overcast
4:05 AM 71.6 °F - 69.8 °F 94% 29.97 in 5.0 mi SE 6.9 mph - N/A   Overcast
4:55 AM 71.1 °F - 69.1 °F 93% 29.93 in 6.0 mi SE 8.1 mph - N/A   Overcast
5:55 AM 70.0 °F - 69.1 °F 97% 29.93 in 6.0 mi SSE 4.6 mph - N/A   Overcast
6:35 AM 69.8 °F - 68.0 °F 94% 29.95 in 6.0 mi SSE 11.5 mph - N/A   Overcast
6:55 AM 70.0 °F - 69.1 °F 97% 29.92 in 5.0 mi SSE 4.6 mph - N/A   Overcast
7:55 AM 71.1 °F - 70.0 °F 96% 29.91 in 5.0 mi SSE 4.6 mph - N/A   Overcast
8:55 AM 73.0 °F - 70.0 °F 90% 29.91 in 7.0 mi South 3.5 mph - N/A   Overcast
9:55 AM 73.0 °F - 71.1 °F 93% 29.90 in 6.0 mi SSW 4.6 mph - N/A   Overcast
10:55 AM 75.0 °F - 71.1 °F 87% 29.91 in 6.0 mi Calm Calm - N/A   Overcast
11:55 AM 75.9 °F - 72.0 °F 87% 29.92 in 9.0 mi NNE 5.8 mph - N/A   Overcast
12:23 PM 77.0 °F - 71.6 °F 83% 29.96 in 9.0 mi ENE 6.9 mph - N/A   Overcast
12:55 PM 79.0 °F - 72.0 °F 79% 29.92 in 10.0 mi ENE 5.8 mph - N/A   Overcast
1:55 PM 80.1 °F 84.2 °F 73.0 °F 79% 29.91 in 10.0 mi ENE 6.9 mph - N/A   Mostly Cloudy
2:55 PM 81.0 °F 85.2 °F 72.0 °F 74% 29.90 in 10.0 mi East 5.8 mph - N/A   Mostly Cloudy
3:17 PM 82.4 °F 87.2 °F 71.6 °F 70% 29.93 in 10.0 mi ENE 3.5 mph - N/A   Scattered Clouds
3:55 PM 82.0 °F 86.7 °F 72.0 °F 71% 29.86 in 10.0 mi ESE 6.9 mph - N/A   Clear
4:55 PM 81.0 °F 84.9 °F 71.1 °F 72% 29.86 in 10.0 mi East 5.8 mph - N/A   Clear
5:55 PM 80.1 °F 83.6 °F 71.1 °F 74% 29.85 in 10.0 mi ESE 5.8 mph - N/A   Clear
6:55 PM 79.0 °F - 72.0 °F 79% 29.84 in 10.0 mi SSE 3.5 mph - N/A   Clear
7:55 PM 77.0 °F - 72.0 °F 84% 29.84 in 10.0 mi Calm Calm - N/A   Clear
8:55 PM 75.9 °F - 71.1 °F 85% 29.81 in 10.0 mi East 5.8 mph - N/A   Clear
9:55 PM 73.9 °F - 71.1 °F 91% 29.84 in 10.0 mi ENE 3.5 mph - N/A   Clear
10:55 PM 73.0 °F - 71.1 °F 93% 29.85 in 9.0 mi SE 4.6 mph - N/A   Clear
11:55 PM 73.0 °F - 71.1 °F 93% 29.88 in 9.0 mi ESE 4.6 mph - N/A   Scattered Clouds